GFSSW_prec_cloud_198.txt.gz
Cloud_Cover
0 1 9 5 0 0 0 0 41 100 100 100 100 100 100 100 100 100 100 100 100 100 100 100 100 100 100 97 79 97 100 60 5 5 68 40 8 79 97 64 20 6 22 5 6
0 0 0 7 32 0 0 0 16 100 100 100 100 100 100 100 100 100 100 100 100 100 100 100 100 100 100 100 88 77 100 67 10 12 9 7 100 87 54 97 12 5 64 13 36
0 0 0 0 2 4 0 0 0 99 100 100 100 100 100 100 100 100 100 100 100 100 100 100 100 100 100 100 100 66 100 27 5 96 77 20 80 5 5 30 2 39 100 43 8
0 0 0 0 2 6 8 1 0 100 100 100 100 100 100 100 100 100 100 100 100 100 100 100 100 100 100 100 100 100 100 82 6 12 45 73 10 45 71 62 49 6 65 3 5
2 0 0 0 0 0 20 18 0 51 100 100 100 100 100 100 100 100 100 100 100 100 100 100 100 100 100 100 100 100 100 100 100 7 78 58 26 5 5 9 60 5 7 54 21
1 0 0 0 0 0 0 6 17 0 100 100 100 100 100 100 100 100 100 100 100 100 100 100 100 100 100 100 100 100 100 100 100 69 65 98 97 12 12 6 99 7 76 76 41
32 2 0 0 0 0 0 0 18 0 86 100 100 100 100 100 100 100 100 100 100 100 100 100 100 100 100 100 100 100 100 100 100 88 92 20 97 61 55 5 40 5 21 81 5
1 0 1 0 0 0 0 0 11 0 0 100 100 100 100 100 100 100 100 100 100 100 100 100 100 100 100 100 100 100 100 100 100 79 100 100 100 37 100 73 39 6 100 73 92
0 0 0 1 0 0 0 0 0 0 0 2 100 100 100 100 100 100 100 100 100 100 100 100 100 100 100 100 100 100 100 100 100 100 98 37 81 5 96 100 59 83 100 96 100
0 0 0 0 0 0 0 0 0 2 17 0 26 100 100 100 100 100 100 100 100 100 100 100 100 100 100 100 100 100 100 100 100 100 99 23 89 35 29 100 100 100 45 100 81
0 0 0 0 0 0 9 1 7 0 63 0 61 100 100 100 100 100 100 100 100 100 100 100 100 100 100 100 100 100 100 100 100 100 100 100 100 100 100 100 100 100 100 100 100
0 0 0 0 0 2 0 8 4 4 47 0 100 92 100 100 100 100 100 100 100 100 100 100 100 100 100 100 100 100 100 100 100 100 100 100 100 100 100 100 100 100 100 100 100
4 1 2 3 5 0 0 4 53 13 12 82 86 100 100 97 100 93 100 100 100 100 100 100 100 100 100 100 100 100 100 100 100 100 100 100 100 100 100 100 100 100 100 100 100
5 5 16 5 12 8 14 74 100 83 95 36 35 100 100 96 69 80 100 100 100 100 100 100 100 100 100 100 100 100 100 100 100 100 100 100 100 100 100 100 100 100 100 100 100
5 7 88 100 100 95 62 100 100 100 83 48 88 80 100 100 86 93 74 90 100 100 100 100 100 100 100 100 100 100 100 100 100 100 100 100 100 100 100 100 99 100 100 100 100
11 100 100 100 100 100 100 100 100 100 89 100 100 100 98 98 100 90 100 100 100 100 100 100 100 100 100 100 100 100 100 100 100 100 100 100 100 100 100 100 100 100 100 100 100
93 100 100 100 100 100 100 100 100 100 98 100 100 100 100 100 96 98 100 100 100 100 100 100 100 100 100 100 100 100 100 100 100 100 100 100 100 100 100 100 100 100 100 100 100
100 100 100 100 100 100 100 100 100 100 100 100 100 100 100 100 97 74 100 100 100 100 100 100 100 100 100 100 100 100 100 100 100 98 100 100 100 100 100 100 100 100 100 100 100
100 89 100 100 100 100 100 100 100 100 100 100 100 100 100 100 100 100 100 100 100 47 100 100 100 100 100 100 100 100 100 100 100 100 100 100 100 100 100 100 100 100 100 100 100
97 100 100 100 100 100 100 100 100 100 100 100 100 100 100 100 100 99 100 100 100 100 100 100 100 100 100 100 100 100 100 100 100 100 100 100 100 100 100 100 100 100 100 100 100
11 100 88 100 83 100 100 100 100 100 100 100 100 100 100 100 100 100 97 100 34 80 100 99 100 100 100 100 100 100 100 100 100 100 100 100 100 100 100 100 100 100 100 100 100
5 86 35 100 16 79 100 100 100 100 100 100 100 100 100 100 100 100 100 100 100 99 88 100 99 100 100 98 100 100 100 100 100 100 100 100 100 100 100 100 100 100 100 100 100
67 74 43 54 52 100 52 76 100 100 100 100 100 100 100 100 100 100 100 100 100 100 100 98 73 99 100 100 100 100 100 100 100 100 100 100 100 100 100 100 100 100 100 100 100
10 5 5 38 55 67 100 100 100 100 100 100 100 100 100 100 100 100 100 100 100 100 100 100 66 47 56 6 100 100 100 100 100 100 100 100 100 100 100 100 100 100 100 100 100
12 63 50 6 13 60 100 100 99 87 100 100 100 100 100 100 100 100 100 100 100 100 100 100 100 100 100 93 100 100 100 100 100 100 100 100 100 100 100 100 100 100 100 100 100
5 14 79 92 18 60 100 91 90 69 37 100 100 100 100 100 100 100 100 100 100 100 100 100 100 100 100 100 100 100 100 100 100 100 100 100 100 100 100 100 100 100 100 100 100
0 2 5 16 14 41 96 100 100 16 75 97 100 100 100 100 100 100 100 100 100 100 100 100 66 84 76 66 96 64 95 100 100 100 100 100 100 100 100 100 100 100 98 90 42

GFSSW_prec_cloud_201.txt.gz
Cloud_Cover
6 7 16 13 0 0 0 80 100 100 100 100 100 100 100 100 100 100 100 100 100 100 100 100 100 100 100 100 46 74 9 5 19 5 7 7 50 100 5 5 26 100 99 6 0
0 6 0 15 9 0 0 0 100 100 100 100 100 100 100 100 100 100 100 100 100 100 100 100 100 100 100 100 48 28 97 5 5 5 78 7 52 100 10 6 69 26 88 19 5
2 0 6 0 18 0 0 0 5 100 100 100 100 100 100 100 100 100 100 100 100 100 100 100 100 100 100 100 100 75 100 5 3 65 13 49 99 94 74 5 5 85 95 100 1
11 0 8 0 0 1 0 4 0 3 98 100 100 100 100 100 100 100 100 100 100 100 100 100 100 100 100 100 100 100 100 45 97 100 36 32 65 99 68 5 5 54 5 3 5
3 9 0 1 0 0 13 1 9 0 2 100 100 100 100 99 100 100 100 100 100 100 100 100 100 100 100 100 100 100 100 97 100 16 5 5 19 67 5 68 18 45 69 14 5
5 20 0 0 0 0 0 3 22 0 0 90 100 100 100 100 97 100 100 100 100 100 100 100 100 100 100 79 100 100 100 100 98 43 5 5 61 100 22 5 5 5 75 93 18
5 21 57 1 0 0 0 0 1 0 0 59 100 100 100 100 100 100 100 100 100 100 100 100 100 100 100 100 100 100 100 100 80 63 11 16 98 80 25 69 88 66 9 16 90
0 5 39 44 5 0 0 0 2 0 0 35 100 100 100 100 100 100 100 100 100 100 100 100 100 100 100 100 100 100 100 100 94 98 76 42 91 96 98 59 86 82 81 35 100
0 0 0 61 78 5 0 0 2 0 0 53 40 100 100 100 100 100 100 100 100 100 100 100 100 100 100 100 100 100 100 100 100 100 84 89 100 100 100 100 100 100 100 92 100
5 0 0 0 71 100 43 6 0 0 0 0 67 100 100 100 100 82 100 100 100 100 100 100 100 100 100 100 100 100 100 100 100 100 99 94 99 100 100 100 100 100 100 98 100
5 0 0 0 0 36 100 67 10 1 78 0 24 66 100 100 100 100 100 100 100 100 100 100 100 100 100 100 100 100 100 100 100 100 100 100 100 100 93 100 100 100 100 100 100
56 4 0 0 0 0 48 100 93 5 18 0 5 70 66 100 100 100 100 100 100 100 100 100 100 100 100 100 100 100 100 100 100 100 100 100 100 100 100 100 100 100 48 94 73
4 3 0 0 0 56 72 4 87 100 16 17 0 52 96 82 50 100 100 100 100 100 100 100 100 100 100 100 100 100 100 100 100 100 100 100 100 100 100 100 99 100 78 100 92
20 0 1 0 22 14 57 44 5 41 91 35 4 7 85 100 71 89 100 100 100 100 100 100 100 100 100 100 100 100 100 100 100 100 100 100 100 100 100 100 100 98 100 100 100
5 5 8 99 11 30 52 5 95 96 69 84 87 56 97 100 74 90 91 100 100 100 100 100 100 100 100 100 100 100 100 100 100 100 100 100 100 100 100 100 100 100 100 100 100
5 12 54 100 97 89 42 49 100 100 69 85 93 99 99 100 98 88 100 100 100 100 100 100 100 100 100 100 100 100 100 100 100 100 100 100 100 100 100 100 100 100 100 100 100
5 40 100 100 100 100 100 100 100 80 83 100 100 88 100 100 100 100 100 100 100 100 100 100 100 100 100 100 100 100 100 100 100 100 100 100 100 100 100 100 100 100 100 100 100
7 100 100 100 100 100 100 100 100 74 71 100 100 99 100 100 98 100 100 100 100 100 100 100 100 100 100 100 100 100 100 100 100 100 100 100 100 100 100 100 100 100 100 100 100
63 100 90 100 100 100 100 100 99 84 96 100 100 100 100 100 92 100 100 100 100 100 100 100 100 100 100 100 100 100 100 100 100 100 100 100 100 100 100 100 100 100 100 100 100
67 56 81 99 100 100 95 100 100 100 100 100 100 92 78 98 98 99 99 100 100 100 100 100 100 100 100 100 100 100 100 100 100 100 100 100 100 100 100 100 100 100 100 100 100
93 66 5 5 88 99 100 100 100 100 100 100 100 100 98 100 96 100 82 80 99 100 99 77 100 100 100 100 100 100 100 100 100 100 100 100 100 100 100 100 100 100 100 100 100
1 70 100 60 58 99 100 100 100 100 100 100 100 100 100 100 99 100 100 79 100 90 96 78 100 100 100 100 100 100 100 100 100 100 100 100 100 100 100 100 100 100 100 100 100
58 38 5 12 52 100 100 100 100 100 100 100 100 100 100 100 100 100 100 100 99 80 76 84 100 100 100 100 100 100 100 100 100 100 100 100 100 100 100 100 100 100 100 100 100
5 5 5 9 43 45 93 100 100 100 100 100 100 100 100 100 100 100 100 100 100 100 100 86 60 100 66 61 76 100 100 100 100 100 100 100 100 100 100 100 100 100 100 100 100
9 60 13 5 6 89 100 73 100 100 100 100 100 100 100 100 100 100 100 100 100 100 100 89 96 56 85 100 90 100 100 100 100 100 100 100 100 100 100 100 100 100 100 100 100
5 15 71 94 25 25 30 76 100 100 100 100 100 100 100 100 100 100 100 100 100 100 100 100 100 59 99 98 100 100 100 100 100 100 100 100 100 100 100 100 100 100 100 100 100
5 0 5 18 5 8 37 4 92 100 100 100 100 100 100 100 100 100 100 100 100 100 100 100 97 100 100 90 100 66 10 28 79 100 100 100 100 100 100 100 100 100 100 100 100

GFSSW_prec_cloud_207.txt.gz
Cloud_Cover
0 0 0 0 10 5 0 0 3 4 92 100 100 100 100 100 100 100 100 100 100 100 100 100 100 99 100 98 80 100 99 96 60 100 91 58 52 9 28 5 20 100 79 45 39
0 3 0 0 0 8 11 4 0 4 4 100 100 100 100 100 100 100 100 100 100 100 100 96 100 100 100 100 100 100 100 82 6 50 100 100 99 37 5 5 5 16 100 65 100
0 0 11 1 0 0 23 4 3 4 2 57 100 100 100 100 100 100 100 100 100 100 100 100 100 100 100 100 100 96 100 100 99 14 30 96 100 72 5 5 5 5 92 100 100
0 1 0 82 0 0 0 10 1 7 5 5 100 100 100 100 100 100 100 100 100 100 100 100 100 99 100 100 100 100 100 95 100 63 24 97 59 5 5 5 4 5 31 100 100
0 0 0 0 7 0 0 0 17 12 2 10 37 100 100 100 100 100 100 100 100 100 100 100 100 100 100 100 100 100 100 54 77 99 44 96 5 5 5 43 22 5 64 100 100
7 5 0 0 4 5 0 0 1 17 4 20 5 100 100 100 100 100 100 100 100 100 100 100 100 100 100 100 100 100 100 90 24 100 74 61 5 5 5 5 72 5 31 64 91
5 12 0 0 0 2 11 4 3 10 0 0 10 100 100 100 100 100 100 100 100 100 100 100 100 100 100 100 100 100 100 79 11 41 77 93 5 5 4 5 77 69 8 20 19
0 43 6 5 23 0 98 5 5 0 1 0 0 88 100 100 100 100 100 100 100 100 98 100 100 100 100 100 100 100 100 100 76 90 86 40 6 5 5 43 10 16 20 5 2
5 0 4 9 24 1 37 77 49 5 0 2 0 0 78 100 100 100 100 100 100 100 100 99 100 100 100 100 100 100 95 99 100 100 100 87 100 100 96 98 99 94 62 28 5
4 2 0 5 5 5 20 100 100 23 1 0 0 17 8 100 100 100 100 100 100 100 100 100 100 100 100 100 100 100 100 100 100 100 100 100 100 100 100 96 100 100 100 95 7
5 2 0 3 80 0 0 100 99 100 57 0 0 1 98 81 100 100 100 100 100 100 100 100 100 100 100 100 100 100 100 100 100 100 100 100 100 100 98 100 64 54 59 11 5
5 0 0 5 93 18 0 34 100 100 100 5 0 1 24 96 100 100 100 100 100 100 100 100 100 100 100 100 100 100 100 100 100 100 83 100 100 100 90 88 73 29 27 5 5
0 0 0 12 98 78 0 1 100 100 100 76 3 1 83 59 100 100 100 100 100 100 100 100 100 100 100 100 100 100 100 100 100 100 100 100 100 100 100 86 89 96 100 28 16
0 0 4 72 10 47 8 0 73 100 100 100 80 3 0 11 95 100 100 100 100 100 100 100 100 100 100 100 100 100 100 100 100 100 100 100 100 100 99 100 100 87 100 85 84
0 0 3 5 13 70 0 81 5 100 100 100 100 64 27 2 63 100 100 100 100 100 100 100 100 100 100 100 100 100 100 100 100 100 100 100 100 100 62 100 100 100 100 100 100
0 0 3 53 24 10 1 7 24 52 100 100 100 100 94 93 5 84 85 100 100 100 100 100 100 100 100 100 100 100 100 100 100 100 100 100 100 100 95 55 100 100 100 100 100
0 0 5 16 74 29 30 97 37 23 57 100 100 100 100 97 53 18 77 99 100 100 100 100 100 100 100 100 100 100 100 100 100 100 100 100 100 100 100 100 100 100 100 100 100
4 5 5 32 99 100 100 98 92 39 6 100 100 100 100 98 100 100 100 100 100 100 100 100 100 100 100 100 100 100 100 100 100 100 100 100 100 100 100 100 100 100 100 100 100
5 5 5 92 100 100 99 100 20 39 66 92 100 100 100 100 100 100 100 100 76 100 100 100 100 100 100 100 100 100 100 100 100 100 100 99 100 100 100 100 100 100 100 100 100
5 5 5 91 100 94 100 100 100 98 99 100 88 100 100 100 83 100 100 100 98 99 100 100 100 100 100 100 100 100 100 100 100 100 100 100 100 100 100 100 100 100 100 100 100
5 5 5 100 96 94 84 100 100 100 100 100 96 100 100 100 99 100 100 100 100 94 100 100 100 100 100 100 100 100 100 100 100 100 100 100 100 100 100 100 100 100 100 100 100
5 5 5 69 39 96 100 100 99 100 100 100 100 100 100 100 100 100 100 96 100 100 100 100 100 100 100 100 100 100 100 100 100 100 100 100 100 100 100 100 100 100 100 100 100
2 17 5 42 10 96 100 100 93 73 100 100 100 100 100 99 100 100 100 100 100 100 100 100 100 99 100 100 100 100 100 100 100 100 100 100 100 100 100 100 100 100 100 100 100
4 5 5 9 11 63 91 40 25 90 100 100 100 100 100 100 97 100 100 100 100 100 100 100 92 21 75 93 100 100 100 100 100 100 100 100 100 100 100 100 100 100 100 100 100
14 27 15 5 13 12 5 53 39 100 100 100 96 85 100 100 100 100 100 100 100 100 100 97 93 71 55 97 100 78 100 100 100 100 100 100 100 100 100 100 100 100 100 100 100
6 17 90 100 29 5 5 25 20 62 99 100 100 100 100 100 100 99 100 100 100 100 100 99 97 100 73 5 5 6 100 17 76 100 100 100 100 100 100 100 100 100 100 100 100
3 1 5 74 5 5 6 4 5 96 100 100 100 100 100 100 100 100 100 100 100 100 100 95 57 57 100 16 5 6 54 95 78 82 84 98 100 100 100 100 100 100 100 100 100

GFSSW_prec_cloud_210.txt.gz
Cloud_Cover
0 0 0 0 2 9 4 0 0 0 4 99 100 100 100 100 100 100 100 100 100 100 100 100 100 100 100 27 63 100 100 99 76 48 73 79 13 5 5 5 5 5 5 15 32
0 0 0 0 0 1 6 5 3 0 1 100 28 100 100 100 100 100 100 100 100 100 100 100 100 100 100 100 100 100 99 54 64 64 68 91 95 65 6 5 5 5 5 25 100
3 0 0 1 1 0 0 19 3 4 0 52 100 79 100 100 100 100 100 100 100 100 100 100 100 100 100 100 100 100 96 44 72 100 77 62 95 100 66 48 18 51 26 100 100
48 1 0 0 4 0 0 1 8 6 0 0 95 100 100 100 100 98 100 100 100 100 100 100 100 100 100 100 100 100 100 99 100 100 100 76 86 67 90 100 33 5 6 99 97
5 5 0 0 0 5 0 1 0 0 7 0 5 100 100 100 100 100 100 100 100 100 100 100 100 100 100 100 100 100 100 78 99 100 100 100 72 5 72 100 100 60 5 98 69
5 2 5 0 0 0 0 0 4 0 0 0 0 32 100 100 100 100 100 100 100 100 100 100 100 100 100 100 93 100 100 38 97 100 68 100 90 96 5 46 5 54 5 20 96
0 5 5 0 0 0 0 0 79 0 0 0 0 0 99 100 100 100 100 100 100 100 100 100 100 100 100 100 100 100 100 45 58 35 14 100 96 56 20 58 7 29 5 4 25
0 0 5 0 0 0 0 0 38 18 0 2 0 0 2 100 100 100 100 100 100 100 100 100 100 100 100 100 100 100 100 84 99 100 100 16 100 27 42 36 95 12 5 5 17
5 0 0 4 5 5 0 0 3 92 0 0 0 0 0 87 100 100 100 100 100 100 100 100 100 99 100 100 100 100 100 100 100 100 100 56 100 100 16 100 56 15 5 5 17
7 2 0 0 0 5 2 5 0 100 3 5 2 1 0 0 100 100 100 100 100 100 100 100 100 100 100 100 100 100 100 100 100 92 100 97 100 100 88 100 7 5 5 5 5
53 5 2 0 0 4 0 0 0 99 28 5 0 0 22 4 17 100 100 100 100 100 100 100 100 100 100 100 100 100 100 100 100 100 100 100 100 94 85 80 6 5 5 5 11
5 4 0 0 2 28 62 0 0 49 98 72 2 0 94 14 5 60 100 100 100 100 100 100 100 100 100 100 100 100 100 100 100 100 100 100 100 100 40 32 5 5 17 5 40
28 0 0 2 1 13 82 1 0 52 100 44 5 1 27 36 5 36 88 100 100 100 100 100 100 100 100 100 100 100 100 100 100 100 100 100 100 100 100 100 100 100 87 11 36
0 0 0 1 2 0 4 3 0 10 99 62 68 7 0 0 75 66 75 100 100 100 100 100 100 100 100 100 100 100 100 100 100 100 100 100 94 76 100 97 100 100 93 92 99
0 0 0 0 0 0 0 44 18 2 86 100 71 23 1 4 6 65 50 46 100 100 100 100 100 100 100 100 100 100 100 100 100 100 100 100 100 100 92 99 100 100 100 100 100
0 0 0 0 4 0 14 6 37 28 60 100 92 35 11 6 6 26 26 76 98 100 100 100 100 100 100 100 100 100 100 100 100 100 100 100 100 100 76 100 100 100 100 100 100
0 0 2 8 48 6 4 100 38 5 4 100 100 98 100 51 16 100 46 100 100 100 100 100 100 100 100 100 100 100 100 100 100 100 100 100 100 100 100 100 100 100 100 100 100
0 0 8 23 78 97 82 57 98 5 5 64 100 100 100 86 8 31 100 100 100 100 100 100 100 100 100 100 100 100 100 100 100 100 100 100 100 100 100 100 100 100 100 100 100
0 5 5 5 74 85 100 100 14 5 27 80 100 100 100 78 56 89 76 83 65 97 100 100 100 100 100 100 100 100 100 100 100 100 100 100 100 100 100 100 100 100 100 100 100
5 5 5 91 96 86 97 100 100 100 100 100 100 100 100 100 81 100 100 100 99 80 90 100 100 100 100 100 100 100 100 100 100 93 100 100 100 100 100 100 100 100 100 100 100
0 14 5 99 100 95 98 100 100 100 100 100 97 100 100 100 100 97 100 100 100 100 98 99 97 100 100 100 100 100 100 100 97 100 100 100 100 100 100 100 100 100 100 100 100
0 92 5 50 63 94 92 100 100 99 100 100 98 100 100 100 100 100 94 100 100 100 100 85 100 100 100 100 100 100 100 100 100 100 100 100 100 100 100 100 100 100 100 100 100
3 3 5 27 66 75 97 81 97 100 100 100 99 100 100 100 100 100 100 99 100 89 98 99 100 88 100 100 100 100 100 100 100 100 100 100 100 100 100 100 100 100 100 100 100
0 38 59 16 9 9 95 94 18 52 95 100 100 96 100 100 100 100 99 100 100 100 100 81 74 48 100 100 100 100 100 100 100 100 100 100 100 100 93 100 100 100 100 100 100
4 10 12 6 6 6 6 7 63 100 100 100 100 53 90 100 97 100 100 100 100 100 100 100 100 55 14 15 92 100 100 100 100 100 100 100 100 100 100 100 100 100 100 100 100
5 10 88 99 18 5 4 5 5 46 100 98 76 98 97 99 99 90 96 100 100 100 100 98 93 96 100 12 45 50 20 90 100 100 100 100 100 100 100 100 100 100 100 100 100
4 4 0 60 5 3 1 3 95 86 100 100 100 100 100 100 100 100 100 100 100 100 100 100 98 100 59 59 23 13 8 35 100 52 100 100 100 100 100 100 100 100 100 100 100

GFSSW_prec_cloud_216.txt.gz
Cloud_Cover
0 0 0 0 0 0 0 0 0 0 0 0 1 100 100 100 100 100 100 100 100 100 100 100 100 100 100 100 100 100 100 100 98 80 47 6 5 12 5 0 0 0 0 0 8
5 0 0 0 0 0 0 0 4 0 0 0 0 4 100 100 100 100 100 100 100 100 95 100 100 100 96 100 100 100 100 100 100 100 10 8 45 70 4 1 3 0 0 3 98
7 4 5 0 0 0 0 0 0 2 4 0 0 0 10 100 100 100 100 100 100 100 100 100 100 91 100 100 100 100 100 100 100 100 73 49 99 99 5 2 5 2 5 55 98
5 4 3 3 0 0 0 0 0 0 0 0 0 0 0 54 100 100 100 100 100 100 100 100 100 99 100 100 100 100 100 100 100 100 58 84 100 100 11 78 13 22 4 6 6
0 0 2 0 0 0 0 0 0 0 0 0 0 0 11 17 100 100 100 100 100 100 100 100 100 100 98 100 100 100 100 100 100 100 100 100 87 100 71 7 42 5 0 17 5
0 0 0 0 0 0 0 1 0 0 0 0 0 0 17 17 28 100 100 100 100 100 100 100 100 100 100 100 100 100 100 100 100 100 100 91 78 100 78 5 5 25 5 2 5
0 0 0 0 0 0 0 0 0 0 0 0 0 0 10 3 6 100 100 100 100 100 100 100 100 100 100 100 100 100 100 100 100 100 100 100 100 100 100 64 7 32 11 5 8
0 0 0 0 0 0 0 0 0 0 0 0 0 6 4 0 82 4 100 100 100 100 100 100 100 100 100 100 100 100 100 100 100 100 100 100 100 99 100 100 19 5 5 9 24
0 3 0 0 0 0 0 0 0 0 0 0 0 2 22 3 1 4 99 100 100 100 100 100 100 100 100 100 100 100 100 100 100 100 100 100 100 64 100 100 82 54 75 48 59
2 5 3 0 0 0 0 0 0 0 1 0 0 12 8 53 11 0 15 100 100 100 100 100 100 100 100 100 100 100 100 100 100 100 100 100 100 100 100 100 100 100 100 100 100
5 2 5 0 0 0 0 1 4 18 0 5 80 1 100 53 2 0 0 100 100 100 100 100 100 100 100 100 100 100 100 100 100 100 100 100 100 86 100 100 100 84 30 91 79
5 0 5 0 0 0 0 4 5 55 23 2 0 0 1 85 41 0 0 56 100 100 100 100 100 100 100 100 100 100 100 100 100 100 100 100 100 100 100 98 87 40 81 100 98
0 2 1 0 0 0 0 19 1 65 40 5 0 1 5 24 64 73 0 5 100 100 100 100 100 100 100 100 100 100 100 100 100 100 100 100 100 100 100 100 98 20 7 100 100
0 0 0 0 20 4 3 3 0 1 37 5 2 0 0 70 84 97 10 5 87 100 100 100 100 100 100 100 100 100 100 100 100 100 100 100 100 100 100 100 100 100 64 35 68
0 0 0 0 4 11 11 0 0 19 80 74 24 2 0 31 90 3 5 7 53 100 100 100 100 100 100 100 100 100 100 100 100 100 100 100 100 100 100 100 48 100 100 81 98
0 0 0 22 22 18 0 0 8 69 48 19 22 4 5 38 100 47 5 1 6 100 100 100 100 100 100 100 100 100 100 100 100 100 100 100 100 100 100 100 98 100 99 94 100
0 0 41 10 72 44 0 11 31 20 61 56 91 54 8 11 100 68 30 31 1 61 100 100 100 100 100 100 100 100 100 100 100 100 100 100 100 100 100 100 100 100 100 100 88
0 0 5 95 84 0 5 16 90 20 8 25 64 100 21 11 100 92 97 57 24 20 100 100 100 100 100 100 100 100 100 100 100 100 100 100 100 100 100 100 100 100 100 100 100
0 0 31 5 5 4 21 65 98 100 20 28 91 95 5 32 100 99 100 100 98 83 37 100 100 100 100 100 100 100 100 100 100 100 100 100 100 100 100 100 100 100 100 100 100
2 6 4 5 5 5 91 98 100 100 57 54 58 87 87 28 100 100 95 97 99 100 100 100 100 100 100 100 100 100 100 100 100 100 100 100 100 100 100 100 100 100 100 100 100
5 82 5 5 5 64 67 99 87 100 92 94 91 100 94 99 100 100 92 63 88 100 100 100 96 100 100 100 100 100 100 100 100 100 100 100 100 100 100 100 100 100 100 100 100
5 92 5 5 81 100 100 100 89 100 100 100 73 75 30 94 100 100 100 99 98 99 100 100 100 100 100 100 100 100 100 100 100 100 100 100 100 100 100 100 100 100 100 100 100
33 44 5 7 83 96 100 66 100 100 100 99 100 88 99 100 100 100 100 98 90 100 100 100 100 100 100 100 100 100 100 100 100 100 100 100 100 100 100 100 100 100 100 100 100
6 90 61 66 77 66 100 98 100 98 96 100 100 100 100 100 100 100 100 100 99 98 100 100 100 99 60 56 100 100 100 100 100 100 100 100 100 100 100 100 100 100 100 100 100
6 99 96 97 93 84 87 64 100 70 85 97 100 100 100 90 99 100 100 100 100 100 100 100 100 52 96 88 98 100 100 100 100 100 100 100 100 100 100 100 100 100 100 100 100
20 48 38 44 5 10 5 5 5 59 62 99 100 100 100 96 100 100 100 100 100 100 100 100 100 29 59 41 57 90 96 100 100 100 100 100 100 100 100 100 100 100 100 100 100
6 5 38 100 22 5 7 5 1 28 74 100 99 100 100 100 100 100 100 100 100 100 100 100 91 90 75 100 25 5 4 54 70 100 100 100 100 100 100 100 100 100 100 100 100

GFSSW_prec_cloud_219.txt.gz
Cloud_Cover
7 5 0 0 0 0 0 0 0 0 0 0 10 88 100 100 100 100 100 100 100 100 100 100 100 100 100 100 100 100 100 99 97 70 100 100 46 70 30 0 5 2 0 0 0
6 5 0 0 0 0 0 0 0 0 0 0 0 0 30 100 100 100 100 100 100 100 100 97 100 100 100 100 100 100 98 98 92 94 99 99 88 5 5 0 5 84 25 0 0
5 5 0 0 0 0 0 0 0 0 0 0 0 0 0 1 94 100 100 100 100 100 100 100 100 100 100 100 100 100 100 92 100 100 100 100 100 6 5 8 5 38 100 5 0
5 6 3 0 0 0 0 0 0 0 0 0 0 0 0 2 48 69 100 100 100 100 100 100 100 100 100 100 100 100 100 100 100 100 99 100 100 100 37 100 6 13 28 5 0
99 5 5 4 0 0 0 0 0 0 0 0 0 0 0 28 28 4 100 100 100 100 100 100 100 100 100 100 100 100 100 100 100 100 100 100 92 100 68 28 5 98 22 6 3
96 5 5 5 0 0 0 0 0 0 0 0 0 4 3 27 0 0 73 97 100 100 100 100 100 100 100 100 100 100 100 100 100 100 100 100 99 100 92 6 7 100 45 5 5
64 5 5 1 0 0 0 0 0 0 0 0 0 16 4 0 0 1 0 26 91 100 100 100 100 100 100 100 100 100 100 100 100 100 100 100 100 100 100 72 52 91 100 31 5
5 5 2 0 0 0 0 0 0 0 0 0 0 0 22 0 9 64 86 15 29 99 100 100 100 100 100 100 100 100 100 100 100 100 100 100 100 98 100 100 85 8 27 10 14
5 5 5 0 0 0 0 0 0 0 0 0 0 0 2 3 0 1 6 5 8 96 100 100 100 100 100 100 100 100 100 100 100 100 100 100 100 67 100 100 100 100 34 13 64
5 5 25 5 0 0 0 0 0 0 0 0 0 6 7 8 19 0 0 1 21 45 100 100 100 100 100 100 100 100 100 99 100 100 100 100 100 92 100 100 100 100 91 99 100
7 16 5 8 0 0 0 0 2 2 5 0 8 0 71 5 5 2 5 0 56 73 100 100 100 100 100 100 100 100 100 100 100 100 100 100 100 100 100 100 100 100 100 100 100
13 59 5 5 0 0 0 2 5 10 67 0 0 3 1 97 9 1 18 3 14 100 100 100 100 100 100 100 100 100 100 100 100 100 100 100 100 100 100 100 100 100 100 93 100
5 5 4 1 0 0 0 0 0 0 70 0 0 0 0 3 89 17 68 67 2 75 100 100 100 100 100 100 100 100 100 100 100 100 100 100 100 100 100 100 100 100 100 100 100
5 5 0 0 2 0 0 0 0 4 58 3 17 0 0 0 5 6 100 84 0 5 54 100 100 100 100 100 100 100 100 100 100 100 100 100 100 100 100 100 100 100 100 100 100
0 2 5 0 0 2 0 0 0 15 9 4 92 2 0 2 2 63 100 93 1 5 7 100 100 100 100 100 100 100 100 100 100 100 100 100 100 100 100 100 100 100 99 100 100
5 5 5 0 20 0 0 0 2 4 33 4 8 78 1 0 0 34 100 92 1 4 41 100 100 100 100 100 100 100 100 100 100 100 100 100 100 100 100 100 100 100 96 99 100
5 5 26 4 29 0 0 0 5 5 2 14 25 100 33 5 0 99 100 99 44 81 100 100 100 100 100 100 100 100 100 100 100 100 100 100 100 100 100 100 100 100 100 100 100
5 5 8 64 2 0 2 5 5 5 76 6 52 75 97 10 5 59 100 94 8 100 100 100 100 100 100 100 100 100 100 100 100 100 100 100 100 100 100 100 100 100 100 100 100
7 52 5 5 5 1 5 13 7 57 11 55 12 91 57 5 5 78 100 100 43 100 100 100 100 100 100 100 100 100 100 100 100 100 95 99 100 100 100 100 100 100 100 100 100
100 5 5 5 2 5 22 54 52 79 100 80 70 100 100 18 6 47 99 99 100 100 100 100 100 100 100 100 100 100 100 100 100 100 99 70 100 100 100 100 100 100 100 100 100
77 31 43 5 5 5 47 98 92 100 91 87 96 98 100 100 71 92 100 100 98 100 100 100 100 100 100 100 100 100 100 100 100 100 100 66 99 100 100 100 100 100 100 100 100
5 98 29 5 14 99 100 100 96 98 100 100 90 77 93 46 100 100 100 100 100 100 100 100 100 100 100 100 100 100 100 100 100 100 100 97 98 100 100 100 100 100 100 100 100
100 70 5 5 27 73 100 28 100 100 100 94 99 100 87 100 93 100 100 100 100 79 100 100 100 100 100 100 100 100 100 100 100 100 100 100 56 100 100 100 100 100 100 100 100
76 10 23 40 94 85 100 100 97 100 84 74 99 100 100 100 100 92 100 100 100 100 100 100 100 100 66 89 100 100 100 100 100 100 100 100 100 100 100 100 100 100 100 100 100
9 70 65 7 43 95 100 97 100 69 5 15 40 80 100 85 100 100 100 100 100 100 100 100 100 100 100 93 99 100 100 100 100 100 100 100 100 100 100 100 100 100 100 100 100
9 14 93 66 17 62 23 48 6 5 5 78 98 91 100 84 99 100 100 100 100 100 100 100 100 90 99 75 57 97 100 100 100 100 100 100 100 100 100 100 100 100 100 100 100
25 53 17 74 26 8 13 5 0 3 23 76 78 88 100 96 100 100 100 100 100 100 100 100 63 98 94 5 6 5 89 100 100 100 100 100 100 100 100 100 100 100 100 100 100